Jackson, MI

5:33 PM EST on February 08, 2016 (GMT -0500)
Jackson County-Reynolds

Weather History for KJXN - November, 2012

Change the Weather History Date:

Wednesday, November 21, 2012

  Actual Average Record
Temperature  
Mean Temperature 43 °F 38 °F  
Max Temperature 56 °F 45 °F - ()
Min Temperature 29 °F 30 °F - ()
Degree Days  
Heating Degree Days 22 27  
Month to date heating degree days 529 490  
Since 1 July heating degree days 1177 1138  
Cooling Degree Days 0 0  
Month to date cooling degree days 0 0  
Year to date cooling degree days 873 592  
Moisture  
Dew Point 34 °F    
Average Humidity 78    
Maximum Humidity 100    
Minimum Humidity 55    
Precipitation  
Precipitation 0.00 in 0.09 in - ()
Month to date precipitation 0.37 1.87  
Year to date precipitation 23.24 28.90  
Sea Level Pressure  
Sea Level Pressure 30.19 in    
Wind  
Wind Speed 1 mph (SSW)    
Max Wind Speed 10 mph    
Max Gust Speed 15 mph    
Visibility 3 miles    
Events Fog    
T = Trace of Precipitation, MM = Missing Value Source: NWS Daily Summary

Daily Weather History Graph

Daily Weather History Graph

Search for Another Location

Airport or City:

Trip Planner

Search our weather history database for the weather conditions in past years. The results will help you decide how hot, cold, wet, or windy it might be!

Date:

Astronomy

Nov. 21, 2012 Rise Set
Actual Time 7:36 AM EST 5:11 PM EST
Civil Twilight 7:05 AM EST 5:41 PM EST
Nautical Twilight 6:31 AM EST 6:16 PM EST
Astronomical Twilight 5:57 AM EST 6:49 PM EST
Moon 1:33 PM EST (11/21) 12:47 AM EST (11/21)
Length of Visible Light 10h 36m
Length of Day
9h 34m
First Quarter, 61% of the Moon is Illuminated
Nov 21
First Quarter
Nov 28
Full
Dec 6
Last Quarter
Dec 13
New
Dec 20
First Quarter

Hourly Weather History & Observations

Time (EST) Temp. Windchill Dew Point Humidity Pressure Visibility Wind Dir Wind Speed Gust Speed Precip Events Conditions
12:07 AM 35.6 °F - 35.6 °F 100% 30.15 in 1.8 mi Calm Calm - N/A   Clear
12:25 AM 35.6 °F - 33.8 °F 93% 30.15 in 0.8 mi Calm Calm - N/A   Clear
12:31 AM 35.6 °F - 33.8 °F 93% 30.15 in 2.0 mi Calm Calm - N/A   Clear
12:56 AM 36.0 °F - 34.0 °F 93% 30.17 in 1.8 mi Calm Calm - N/A   Clear
1:10 AM 37.4 °F - 35.6 °F 93% 30.15 in 0.8 mi Calm Calm - N/A   Clear
1:16 AM 37.4 °F - 35.6 °F 93% 30.15 in 2.0 mi Calm Calm - N/A   Clear
1:23 AM 35.6 °F - 33.8 °F 93% 30.15 in 4.0 mi Calm Calm - N/A   Clear
1:56 AM 35.1 °F - 33.1 °F 92% 30.17 in 3.0 mi Calm Calm - N/A   Clear
2:19 AM 33.8 °F - 30.2 °F 87% 30.16 in 1.2 mi Calm Calm - N/A   Clear
2:26 AM 33.8 °F - 30.2 °F 87% 30.16 in 0.2 mi Calm Calm - N/A Fog Fog
2:33 AM 33.8 °F - 32.0 °F 93% 30.16 in 1.0 mi Calm Calm - N/A   Clear
2:39 AM 33.8 °F - 33.8 °F 100% 30.16 in 3.0 mi Calm Calm - N/A   Clear
2:56 AM 30.9 °F - 28.9 °F 92% 30.19 in 3.0 mi Calm Calm - N/A   Clear
3:37 AM 33.8 °F - 32.0 °F 93% 30.18 in 2.5 mi Calm Calm - N/A   Clear
3:56 AM 32.0 °F - 30.0 °F 92% 30.19 in 1.5 mi Calm Calm - N/A   Clear
4:11 AM 32.0 °F - 30.2 °F 93% 30.17 in 2.0 mi Calm Calm - N/A   Clear
4:25 AM 32.0 °F - 30.2 °F 93% 30.17 in 3.0 mi Calm Calm - N/A   Clear
4:56 AM 30.9 °F - 28.9 °F 92% 30.21 in 2.5 mi Calm Calm - N/A   Clear
5:04 AM 32.0 °F - 30.2 °F 93% 30.18 in 3.0 mi Calm Calm - N/A   Partly Cloudy
5:17 AM 30.2 °F 24.3 °F 30.2 °F 100% 30.17 in 2.0 mi SSE 5.8 mph - N/A   Partly Cloudy
5:27 AM 28.4 °F - 28.4 °F 100% 30.18 in 5.0 mi Calm Calm - N/A   Partly Cloudy
5:56 AM 30.9 °F - 28.9 °F 92% 30.20 in 2.5 mi Calm Calm - N/A   Clear
6:10 AM 32.0 °F - 30.2 °F 93% 30.18 in 3.0 mi Calm Calm - N/A   Clear
6:41 AM 30.2 °F - 28.4 °F 93% 30.19 in 2.5 mi Calm Calm - N/A   Clear
6:56 AM 30.0 °F - 27.0 °F 88% 30.21 in 2.5 mi Calm Calm - N/A   Partly Cloudy
7:08 AM 30.2 °F - 26.6 °F 86% 30.19 in 2.0 mi Calm Calm - N/A   Mostly Cloudy
7:35 AM 30.2 °F - 26.6 °F 86% 30.22 in 4.0 mi Calm Calm - N/A   Mostly Cloudy
7:42 AM 30.2 °F - 26.6 °F 86% 30.22 in 1.8 mi Calm Calm - N/A   Scattered Clouds
7:49 AM 30.2 °F - 28.4 °F 93% 30.21 in 0.2 mi Calm Calm - N/A Fog Light Freezing Fog
7:56 AM 30.9 °F - 28.9 °F 92% 30.24 in 0.2 mi Calm Calm - N/A Fog Light Freezing Fog
8:02 AM 32.0 °F - 28.4 °F 87% 30.21 in 1.2 mi Calm Calm - N/A   Scattered Clouds
8:09 AM 30.2 °F - 28.4 °F 93% 30.21 in 0.8 mi Calm Calm - N/A   Mostly Cloudy
8:27 AM 30.2 °F - 28.4 °F 93% 30.22 in 0.2 mi Calm Calm - N/A Fog Light Freezing Fog
8:56 AM 32.0 °F - 30.9 °F 96% 30.25 in 0.2 mi Calm Calm - N/A Fog Fog
9:56 AM 37.9 °F - 37.0 °F 97% 30.26 in 0.2 mi Calm Calm - N/A Fog Fog
10:32 AM 41.0 °F - 39.2 °F 93% 30.24 in 1.0 mi Calm Calm - N/A   Mist
10:39 AM 42.8 °F - 39.2 °F 87% 30.24 in 2.0 mi Calm Calm - N/A   Scattered Clouds
10:53 AM 44.6 °F - 41.0 °F 87% 30.24 in 3.0 mi Calm Calm - N/A   Partly Cloudy
10:56 AM 44.1 °F - 41.0 °F 89% 30.26 in 3.0 mi Calm Calm - N/A   Clear
11:56 AM 52.0 °F - 42.1 °F 69% 30.25 in 6.0 mi Variable 3.5 mph - N/A   Haze
12:56 PM 55.0 °F - 41.0 °F 59% 30.22 in 7.0 mi Variable 4.6 mph - N/A   Clear
1:56 PM 55.0 °F - 39.9 °F 57% 30.22 in 8.0 mi SW 6.9 mph - N/A   Clear
3:56 PM 54.0 °F - 41.0 °F 62% 30.19 in 6.0 mi SW 6.9 mph - N/A   Haze
4:56 PM 52.0 °F - 41.0 °F 66% 30.19 in 6.0 mi SW 4.6 mph - N/A   Haze
5:56 PM 48.9 °F - 41.0 °F 74% 30.19 in 7.0 mi SW 3.5 mph - N/A   Clear
6:56 PM 43.0 °F - 39.0 °F 86% 30.20 in 5.0 mi Calm Calm - N/A   Clear
7:56 PM 42.1 °F - 37.9 °F 85% 30.19 in 5.0 mi Calm Calm - N/A   Clear
8:56 PM 39.0 °F - 36.0 °F 89% 30.19 in 3.0 mi Calm Calm - N/A   Clear
9:31 PM 37.4 °F 34.9 °F 33.8 °F 87% 30.17 in 1.8 mi SW 3.5 mph - N/A   Clear
9:44 PM 39.2 °F 37.0 °F 37.4 °F 93% 30.16 in 2.5 mi SSW 3.5 mph - N/A   Clear
9:56 PM 37.9 °F - 36.0 °F 93% 30.19 in 2.0 mi Calm Calm - N/A   Clear
10:05 PM 35.6 °F 32.8 °F 33.8 °F 93% 30.16 in 1.8 mi SW 3.5 mph - N/A   Clear
10:14 PM 37.4 °F 34.9 °F 33.8 °F 87% 30.16 in 2.0 mi SW 3.5 mph - N/A   Clear
10:32 PM 41.0 °F 38.0 °F 37.4 °F 87% 30.16 in 3.0 mi South 4.6 mph - N/A   Clear
10:45 PM 37.4 °F - 35.6 °F 93% 30.16 in 2.0 mi Calm Calm - N/A   Clear
10:54 PM 39.2 °F - 35.6 °F 87% 30.16 in 1.5 mi Calm Calm - N/A   Clear
10:56 PM 39.9 °F - 37.0 °F 89% 30.18 in 1.5 mi Calm Calm - N/A   Clear
11:24 PM 37.4 °F 34.9 °F 35.6 °F 93% 30.16 in 2.0 mi SSW 3.5 mph - N/A   Clear
11:44 PM 37.4 °F 34.9 °F 35.6 °F 93% 30.16 in 1.8 mi SSW 3.5 mph - N/A   Clear
11:56 PM 39.9 °F 37.8 °F 37.0 °F 89% 30.17 in 2.0 mi SSW 3.5 mph - N/A   Clear